TimePDT,TemperatureF,Dew PointF,Humidity,Sea Level PressureIn,VisibilityMPH,Wind Direction,Wind SpeedMPH,Gust SpeedMPH,PrecipitationIn,Events,Conditions,WindDirDegrees,DateUTC
12:52 AM,52.0,42.1,69,30.07,-9999.0,South,3.5,-,N/A,,Unknown,170,2013-09-07 07:52:00
1:52 AM,50.0,42.1,74,30.07,-9999.0,SE,4.6,-,N/A,,Unknown,140,2013-09-07 08:52:00
2:52 AM,52.0,42.1,69,30.06,-9999.0,Calm,Calm,-,N/A,,Unknown,0,2013-09-07 09:52:00
3:52 AM,51.1,43.0,74,30.05,-9999.0,ENE,4.6,-,N/A,,Unknown,60,2013-09-07 10:52:00
4:52 AM,52.0,43.0,71,30.05,-9999.0,Calm,Calm,-,N/A,,Unknown,0,2013-09-07 11:52:00
5:52 AM,45.0,41.0,86,30.07,-9999.0,SE,5.8,-,N/A,,Unknown,140,2013-09-07 12:52:00
6:52 AM,46.9,42.1,83,30.08,-9999.0,Calm,Calm,-,N/A,,Unknown,0,2013-09-07 13:52:00
7:52 AM,55.0,45.0,69,30.08,-9999.0,Calm,Calm,-,N/A,,Unknown,0,2013-09-07 14:52:00
8:52 AM,60.1,45.0,57,30.08,-9999.0,ENE,3.5,-,N/A,,Unknown,60,2013-09-07 15:52:00
9:52 AM,64.9,45.0,48,30.07,-9999.0,NNE,5.8,-,N/A,,Unknown,20,2013-09-07 16:52:00
10:52 AM,70.0,43.0,38,30.05,-9999.0,NNE,4.6,-,N/A,,Unknown,20,2013-09-07 17:52:00
11:52 AM,75.0,41.0,29,30.03,-9999.0,Variable,5.8,-,N/A,,Unknown,0,2013-09-07 18:52:00
12:52 PM,78.1,39.0,25,30.00,-9999.0,Variable,6.9,-,N/A,,Unknown,0,2013-09-07 19:52:00
1:52 PM,81.0,37.0,21,29.97,-9999.0,Calm,Calm,-,N/A,,Unknown,0,2013-09-07 20:52:00
2:52 PM,82.9,35.1,18,29.94,-9999.0,NNW,9.2,-,N/A,,Unknown,340,2013-09-07 21:52:00
3:52 PM,82.9,35.1,18,29.93,-9999.0,NW,10.4,-,N/A,,Unknown,310,2013-09-07 22:52:00
4:52 PM,82.9,34.0,17,29.91,-9999.0,NNW,6.9,-,N/A,,Unknown,340,2013-09-07 23:52:00
5:52 PM,82.9,34.0,17,29.91,-9999.0,North,3.5,-,N/A,,Unknown,10,2013-09-08 00:52:00
6:52 PM,79.0,36.0,21,29.91,-9999.0,NNE,11.5,-,N/A,,Unknown,20,2013-09-08 01:52:00
7:52 PM,71.1,37.9,30,29.93,-9999.0,NE,8.1,-,N/A,,Unknown,50,2013-09-08 02:52:00
8:52 PM,66.9,37.9,34,29.95,-9999.0,NNE,9.2,-,N/A,,Unknown,30,2013-09-08 03:52:00
9:52 PM,63.0,42.1,46,29.96,-9999.0,North,9.2,-,N/A,,Unknown,360,2013-09-08 04:52:00
10:52 PM,64.0,43.0,46,29.95,-9999.0,North,3.5,-,N/A,,Unknown,360,2013-09-08 05:52:00
11:52 PM,57.9,44.1,60,29.95,-9999.0,NE,4.6,-,N/A,,Unknown,50,2013-09-08 06:52:00